SHERPA-FX2 & TAGSAT-2 (48958 NORAD) Tracking and Keplerian Element Data

This shows tracking and keplerian element data for the satellite.

Feedback or suggestion? Click here.




ElementValue
Catalog48958
NameSHERPA-FX2 & TAGSAT-2
Epoch Orbit1389
Epoch Day268.63571225
Epoch Year2021
RAAN36.3072
Inclination97.5239
Eccentricity0.001586
Argument of Perigee298.7002
Mean Anonmoly61.2635
Mean Motion15.14024654
Decay Rate1.203E-05
L11 48958U 21059CH 21268.63571225 .00001203 00000-0 69713-4 0 9997
L22 48958 97.5239 36.3072 0015860 298.7002 61.2635 15.14024654 13896

Live tracking and technical data element details for SHERPA-FX2 & TAGSAT-2 (NORAD 48958). SHERPA-FX2 & TAGSAT-2 can be tracked NOW for your location showing map with azimuth and elevation plus other details from your city location.

Track the satellite on the map from your city or location and see movement details for azimuth, elevation, latitude, longitude, range, height, and movement on the map or in text.







IsCatalogInMostPopularTable: catalog: 48958, numindb: 17
Update: records affected: 1



GetName: 48958 SHERPA-FX2 & TAGSAT-2

Hit Count: updated at: Sun, 26 Sep 2021 16:40:12 GMT